Wind_Speed
11 5 11 15 16 16 15 16 16 22 11 10 15 19 16 19 27 24 31 36 33 35 34 32 35 36 33 37 39 38 37 36 35 36 36 34 31 29 26 25 25 23 20 14
4 13 21 9 12 7 9 13 20 18 11 7 9 14 13 10 20 34 31 36 34 23 19 25 30 33 34 39 40 39 38 36 37 38 36 34 31 30 27 27 27 25 21 16
19 10 14 7 7 9 12 10 15 15 9 6 6 7 12 9 25 30 35 42 31 25 23 26 29 31 34 41 42 40 39 37 38 38 36 36 33 31 31 31 29 28 23 20
16 20 20 15 18 10 21 9 9 11 6 6 4 15 8 6 12 11 27 38 25 21 22 27 30 30 35 38 38 38 37 37 38 39 40 41 39 38 35 31 30 30 26 24
8 4 6 9 11 9 6 2 2 4 6 6 5 9 5 9 9 11 13 34 30 20 26 27 29 29 30 33 36 36 37 37 39 41 42 40 39 36 32 32 32 31 29 26
14 4 3 4 3 2 3 1 3 3 2 9 11 12 3 6 8 6 9 30 29 18 20 19 23 26 29 30 34 35 36 38 39 41 42 40 39 39 38 36 34 32 31 28
6 16 2 4 4 2 4 3 3 4 1 15 10 10 16 5 8 11 13 25 22 23 21 18 25 30 32 33 35 37 37 39 41 41 40 41 40 41 42 39 36 35 33 29
3 9 14 8 12 8 9 9 6 7 10 21 2 9 9 11 12 20 31 33 16 20 19 20 26 30 32 33 35 37 38 40 42 41 37 40 41 42 43 41 39 37 34 31
7 12 3 6 3 9 6 6 4 1 2 4 12 14 11 11 11 10 13 15 15 16 17 20 23 28 31 32 33 36 39 40 41 40 37 39 42 44 44 43 40 37 35 33
5 11 8 4 3 3 4 1 2 2 2 7 18 13 16 13 18 9 6 8 13 15 18 18 23 28 31 30 31 35 39 42 41 40 39 39 41 44 45 44 42 39 37 33
3 5 8 6 8 11 2 4 5 1 5 7 10 15 4 6 5 8 8 7 7 10 16 18 21 28 30 30 32 36 39 43 44 45 43 42 42 44 46 45 43 40 37 34
8 2 5 15 8 2 6 11 12 10 16 4 12 23 5 5 9 10 8 10 16 20 18 18 19 25 29 31 33 35 40 44 47 47 45 44 44 45 46 46 43 39 36 32
10 3 2 8 14 2 5 6 11 11 11 19 18 22 10 21 18 13 8 8 15 20 22 23 25 28 29 31 34 38 42 43 46 48 48 48 47 47 47 46 42 39 35 31
3 3 10 14 16 15 12 11 11 13 11 20 21 26 31 30 27 25 31 31 29 31 28 34 31 32 34 34 36 38 41 42 44 46 49 49 49 47 44 43 40 37 33 30
6 11 19 24 25 25 23 24 25 23 19 21 25 29 28 31 24 24 36 27 30 31 36 35 35 35 37 36 38 39 39 41 43 45 47 49 49 46 40 41 40 37 33 30
10 10 13 24 31 32 29 29 25 32 30 31 34 30 34 31 39 37 41 43 33 34 40 43 40 38 38 40 39 40 42 43 43 44 47 47 47 44 40 41 41 38 34 31
7 7 8 19 23 27 24 33 38 34 31 30 29 38 38 34 32 33 46 40 40 35 39 37 35 35 31 32 35 38 38 42 42 43 44 47 46 43 39 42 41 38 34 30
17 19 14 18 16 23 17 22 31 36 35 33 34 37 37 33 48 48 32 36 42 43 46 48 44 42 38 31 28 28 34 38 39 41 43 44 43 41 40 44 43 38 33 27
23 22 15 14 19 24 4 23 25 20 33 34 30 32 35 39 38 33 48 47 46 45 50 48 44 41 35 28 27 27 31 35 37 40 42 43 41 40 42 46 43 37 32 26
26 25 20 19 22 25 17 21 26 28 22 13 24 28 26 20 13 18 43 46 45 37 35 29 27 28 26 26 28 28 29 33 36 38 40 41 42 41 45 47 42 36 31 25
7 14 24 23 20 13 5 16 14 15 22 21 27 27 23 16 18 33 40 43 46 42 38 32 28 30 30 27 27 29 31 34 34 37 39 41 41 42 46 46 41 36 30 30
8 8 8 14 20 29 16 10 15 14 23 29 31 31 29 32 30 30 33 32 28 27 29 29 26 30 32 30 31 31 32 32 33 36 38 41 43 47 50 46 40 35 31 25
6 2 4 6 6 10 14 15 33 23 23 24 24 30 29 29 32 33 33 33 34 30 29 27 29 30 31 33 32 33 35 35 35 39 40 44 45 51 51 45 40 33 26 27
9 14 7 14 3 24 44 47 25 24 27 28 26 27 28 28 33 38 40 40 39 36 34 31 30 30 30 31 34 35 38 37 39 41 41 43 49 55 51 45 38 31 30 29
10 17 14 22 21 26 23 26 36 40 37 32 35 29 27 27 30 32 35 35 37 38 36 35 35 35 36 32 34 39 42 43 42 42 41 44 54 54 50 43 36 33 31 26
13 15 13 17 22 23 28 37 33 34 38 35 27 36 39 35 37 39 40 38 42 43 45 41 41 39 38 38 38 39 43 45 46 44 45 49 58 58 50 43 36 32 27 24
Wind_Direction
186 182 218 215 216 234 254 264 261 271 265 188 230 246 252 250 270 266 264 267 264 264 265 254 243 230 231 227 223 226 225 223 218 218 220 224 227 230 232 233 233 231 235 238
209 219 235 258 261 259 276 276 271 275 286 179 259 260 263 255 259 261 266 268 269 261 251 238 228 221 224 221 220 223 227 224 222 223 225 228 229 230 234 233 232 233 234 239
227 205 218 225 241 261 238 243 262 265 282 217 271 259 250 243 253 262 265 267 261 252 241 223 215 224 224 218 220 223 226 226 224 225 224 225 225 227 229 233 234 232 232 238
253 239 245 249 256 228 268 239 263 271 270 243 88 290 224 240 266 238 256 270 262 253 225 224 224 227 223 221 222 223 226 227 226 225 225 228 233 235 238 239 234 231 233 238
219 176 197 232 235 187 258 72 296 286 269 312 218 276 244 187 242 237 247 261 270 263 235 218 227 229 224 220 221 221 223 227 227 227 229 232 232 235 236 234 232 233 234 238
256 124 225 217 88 118 128 305 247 249 231 256 203 217 206 186 211 219 233 254 260 254 212 219 222 218 215 215 216 219 221 224 226 229 231 232 233 231 232 233 233 233 234 238
225 233 151 148 154 180 174 158 295 301 269 264 185 237 249 224 182 196 219 237 256 220 225 213 207 208 209 215 214 217 219 223 225 230 233 234 233 232 236 237 235 233 234 238
246 270 176 182 212 176 180 176 174 225 258 278 130 252 254 222 230 230 231 239 223 200 216 225 217 214 214 218 218 219 220 223 226 230 234 236 235 235 235 236 235 236 238 240
196 251 45 160 197 162 182 196 211 254 43 313 269 279 279 231 232 233 213 176 183 206 225 226 224 225 221 223 226 225 223 225 226 228 233 237 235 235 234 234 235 236 237 238
247 261 182 154 74 278 189 262 119 231 228 240 277 287 271 270 260 225 159 204 218 232 234 236 231 233 233 234 235 231 228 228 227 227 233 238 236 235 235 234 234 234 234 236
266 231 253 122 200 186 167 233 226 237 187 222 264 271 281 144 155 167 205 213 228 232 244 244 242 239 240 245 242 236 233 230 229 231 233 236 237 235 235 234 232 232 231 233
206 203 258 241 225 261 232 215 203 222 240 236 236 259 195 327 132 130 151 183 269 261 239 243 253 246 242 244 244 242 239 236 235 234 234 235 237 237 233 231 229 228 228 230
354 302 268 280 296 359 229 240 250 253 252 247 244 253 245 268 268 256 216 273 260 253 234 243 247 241 248 252 251 247 244 244 238 236 235 234 235 236 233 229 225 224 225 229
67 283 272 259 261 288 284 258 241 240 254 258 256 270 277 271 273 282 282 281 279 269 256 262 257 250 258 258 256 252 249 248 244 239 236 235 235 235 232 226 222 221 223 228
170 230 224 239 245 260 262 260 273 273 257 252 268 268 265 270 277 269 273 278 272 284 281 271 266 263 264 258 258 255 254 250 244 240 238 236 235 235 230 223 219 219 222 229
189 230 216 236 241 251 260 265 260 252 256 255 253 259 262 259 267 271 273 272 283 273 275 274 270 270 267 267 262 260 254 251 246 242 238 236 235 233 227 221 216 216 220 227
199 202 208 244 237 244 250 244 250 256 251 244 251 250 254 261 255 257 266 283 279 275 274 277 277 275 273 268 269 264 261 250 243 239 236 235 235 231 226 217 213 215 219 226
228 232 238 252 249 231 227 229 233 243 248 250 249 251 257 257 258 264 270 273 276 279 287 283 279 279 281 280 269 260 252 247 242 237 235 233 232 228 221 211 209 212 218 225
228 235 248 244 241 257 226 218 223 230 241 245 257 258 252 260 262 270 269 263 266 272 277 283 286 284 280 276 264 252 244 240 237 236 235 232 228 223 215 208 207 210 217 223
234 232 235 241 249 252 239 236 245 257 261 241 242 248 256 254 252 253 260 266 269 273 278 288 291 289 284 273 261 246 242 237 235 237 234 228 223 219 210 205 206 211 215 224
226 230 241 239 245 251 238 270 291 246 263 268 264 262 264 256 246 259 269 270 273 273 272 278 275 282 284 276 264 248 244 244 241 233 229 224 220 213 205 203 206 210 217 226
269 276 256 260 267 267 4 295 247 330 354 0 352 346 344 342 344 354 351 347 343 316 293 286 288 296 285 277 265 255 256 250 238 233 229 222 214 205 200 202 207 209 214 224
273 351 307 311 328 319 336 331 316 306 330 340 332 322 319 318 321 323 324 322 324 325 326 323 309 298 293 279 265 262 262 250 240 232 227 219 211 201 199 202 203 204 213 227
302 296 307 323 311 311 315 318 353 351 338 329 326 313 307 313 311 310 311 305 304 306 308 305 303 301 299 296 277 264 261 255 245 234 225 216 206 198 197 199 201 206 215 224
285 306 295 285 284 300 303 318 321 324 323 331 323 323 330 328 314 307 307 306 304 305 301 299 290 284 285 284 279 268 259 254 244 235 225 213 203 199 194 196 203 209 216 218
264 267 279 285 298 302 309 317 323 320 330 327 322 322 319 316 305 300 294 301 302 301 297 295 289 286 285 279 273 264 257 250 243 232 222 210 201 197 194 196 198 205 207 211
Height
1501 1507 1505 1492 1493 1489 1489 1490 1489 1470 1468 1478 1473 1467 1463 1461 1457 1455 1451 1445 1444 1443 1443 1444 1444 1448 1451 1454 1457 1462 1466 1470 1475 1477 1481 1485 1489 1492 1496 1498 1501 1504 1505 1507
1501 1498 1483 1486 1484 1486 1487 1489 1481 1467 1463 1470 1467 1464 1456 1455 1450 1444 1442 1437 1434 1436 1437 1435 1436 1440 1442 1445 1450 1455 1459 1464 1467 1471 1476 1480 1485 1487 1491 1493 1496 1498 1500 1502
1485 1478 1479 1483 1483 1486 1482 1487 1479 1474 1465 1467 1465 1464 1456 1444 1439 1437 1432 1424 1426 1428 1430 1428 1431 1434 1436 1437 1441 1447 1451 1456 1460 1464 1471 1474 1477 1481 1482 1486 1490 1492 1494 1496
1476 1472 1473 1478 1478 1482 1477 1470 1470 1469 1475 1484 1459 1449 1441 1436 1434 1431 1423 1416 1417 1420 1422 1423 1425 1427 1429 1434 1438 1443 1446 1450 1454 1458 1461 1464 1468 1471 1475 1479 1482 1484 1487 1490
1467 1467 1471 1474 1468 1472 1471 1469 1470 1469 1474 1474 1467 1473 1431 1426 1430 1423 1416 1410 1409 1412 1413 1416 1418 1420 1425 1429 1432 1437 1441 1443 1446 1449 1451 1457 1462 1466 1471 1473 1475 1478 1481 1483
1465 1466 1466 1463 1466 1466 1468 1470 1471 1471 1476 1477 1461 1460 1424 1425 1416 1409 1406 1402 1401 1403 1407 1410 1412 1415 1418 1423 1426 1430 1433 1436 1439 1442 1445 1448 1453 1457 1460 1463 1468 1471 1474 1476
1459 1460 1460 1461 1465 1469 1469 1473 1496 1494 1496 1451 1436 1445 1409 1402 1401 1399 1398 1394 1393 1395 1399 1403 1405 1407 1411 1414 1418 1422 1426 1429 1433 1435 1438 1441 1444 1448 1450 1455 1459 1462 1465 1468
1459 1456 1455 1452 1450 1450 1464 1464 1484 1492 1465 1435 1449 1431 1404 1390 1386 1383 1383 1385 1388 1391 1394 1398 1400 1403 1406 1408 1411 1415 1418 1421 1425 1427 1429 1434 1437 1439 1444 1447 1451 1455 1458 1461
1450 1442 1441 1442 1442 1444 1450 1459 1443 1464 1471 1470 1412 1401 1384 1380 1381 1377 1376 1380 1384 1388 1390 1393 1396 1399 1400 1402 1404 1407 1411 1414 1416 1419 1421 1425 1429 1432 1433 1439 1444 1448 1451 1453
1429 1441 1427 1441 1442 1442 1443 1441 1454 1458 1475 1475 1414 1415 1391 1385 1376 1373 1379 1379 1380 1384 1387 1390 1392 1394 1397 1399 1400 1402 1404 1405 1408 1411 1413 1415 1419 1424 1428 1431 1434 1440 1444 1447
1430 1435 1427 1440 1441 1433 1447 1444 1442 1435 1444 1447 1437 1395 1366 1374 1369 1372 1375 1379 1381 1382 1384 1384 1387 1389 1390 1393 1393 1394 1396 1397 1399 1400 1403 1406 1409 1413 1418 1423 1427 1431 1436 1439
1429 1434 1442 1423 1416 1420 1420 1421 1422 1426 1423 1430 1415 1391 1374 1372 1371 1371 1373 1376 1377 1377 1378 1382 1382 1383 1384 1384 1385 1385 1388 1388 1390 1391 1394 1397 1400 1403 1408 1413 1419 1425 1429 1433
1444 1439 1442 1429 1423 1422 1426 1416 1414 1409 1409 1411 1411 1393 1373 1368 1372 1370 1370 1372 1373 1374 1373 1373 1374 1375 1376 1378 1377 1377 1378 1380 1380 1382 1384 1385 1389 1393 1398 1404 1411 1416 1421 1426
1432 1446 1446 1435 1423 1420 1422 1416 1413 1411 1414 1404 1397 1390 1376 1368 1366 1362 1361 1364 1366 1366 1368 1366 1366 1364 1366 1367 1367 1367 1368 1370 1370 1371 1374 1376 1378 1384 1391 1399 1406 1411 1416 1420
1426 1427 1434 1425 1422 1416 1416 1410 1408 1408 1405 1405 1387 1380 1375 1361 1361 1356 1351 1353 1356 1357 1361 1359 1359 1357 1354 1357 1357 1358 1358 1359 1361 1362 1364 1368 1372 1377 1385 1392 1398 1404 1409 1414
1414 1407 1418 1417 1416 1413 1406 1398 1397 1389 1387 1383 1376 1376 1353 1355 1353 1344 1341 1339 1345 1345 1345 1344 1347 1346 1345 1345 1345 1347 1348 1348 1349 1351 1355 1359 1364 1370 1376 1382 1388 1394 1399 1403
1409 1403 1403 1392 1395 1400 1396 1391 1376 1376 1366 1361 1364 1343 1336 1340 1338 1330 1326 1331 1333 1330 1329 1330 1332 1332 1333 1335 1335 1335 1338 1338 1340 1341 1343 1347 1354 1361 1368 1374 1381 1387 1392 1396
1388 1392 1389 1374 1381 1367 1353 1358 1363 1351 1344 1339 1334 1329 1326 1323 1312 1320 1326 1325 1320 1318 1319 1318 1318 1320 1321 1323 1324 1327 1329 1330 1331 1333 1334 1338 1345 1353 1357 1364 1371 1378 1383 1388
1368 1371 1368 1366 1353 1337 1338 1338 1338 1336 1318 1321 1325 1318 1308 1311 1315 1313 1313 1311 1311 1312 1309 1308 1306 1309 1311 1311 1313 1315 1317 1319 1322 1323 1324 1328 1335 1343 1351 1358 1363 1370 1376 1380
1360 1358 1357 1350 1332 1323 1319 1326 1324 1314 1310 1317 1302 1293 1301 1304 1312 1300 1300 1300 1299 1300 1300 1299 1298 1300 1302 1304 1304 1304 1305 1307 1309 1309 1313 1319 1325 1331 1339 1347 1357 1362 1367 1370
1352 1349 1337 1325 1315 1316 1317 1316 1318 1327 1302 1301 1304 1298 1294 1298 1295 1289 1292 1290 1288 1289 1291 1291 1292 1294 1294 1296 1298 1296 1296 1295 1299 1303 1306 1311 1317 1324 1333 1342 1347 1354 1359 1365
1347 1340 1330 1323 1316 1315 1323 1315 1321 1324 1315 1316 1315 1315 1312 1307 1303 1297 1294 1293 1288 1288 1287 1287 1289 1290 1289 1289 1292 1290 1288 1289 1291 1295 1298 1304 1309 1316 1323 1333 1340 1347 1353 1359
1360 1363 1362 1355 1333 1330 1327 1332 1331 1332 1320 1317 1315 1312 1310 1305 1304 1302 1299 1297 1291 1289 1287 1286 1285 1284 1284 1283 1283 1283 1284 1284 1284 1285 1288 1294 1303 1307 1315 1324 1331 1339 1347 1353
1363 1356 1354 1352 1331 1330 1322 1312 1314 1325 1319 1315 1310 1312 1309 1300 1298 1295 1289 1284 1281 1281 1282 1281 1280 1277 1276 1276 1277 1278 1278 1279 1281 1280 1281 1288 1296 1300 1306 1315 1324 1329 1337 1343
1370 1360 1348 1339 1335 1325 1327 1324 1323 1317 1320 1304 1307 1310 1295 1291 1292 1298 1287 1277 1272 1271 1271 1268 1269 1267 1266 1266 1267 1269 1268 1270 1274 1274 1275 1281 1290 1298 1300 1307 1315 1323 1330 1334
1362 1355 1347 1336 1331 1329 1324 1322 1322 1313 1303 1307 1308 1290 1287 1285 1287 1285 1283 1267 1263 1257 1261 1254 1253 1253 1250 1252 1252 1253 1254 1258 1262 1264 1267 1269 1280 1287 1289 1297 1309 1316 1321 1326